McComb, MS

6:56 PM CDT on August 22, 2017 (GMT -0500)
McComb-Pike County-Lewis

Weather History for KMCB - June, 2013

Change the Weather History Date:

Thursday, June 20, 2013

  Actual Average Record
Temperature  
Mean Temperature 80 °F -  
Max Temperature 91 °F 91 °F 99 °F (1990)
Min Temperature 69 °F 67 °F 59 °F (1976)
Cooling Degree Days 15    
Growing Degree Days 30 (Base 50)    
Moisture  
Dew Point 71 °F    
Average Humidity 79    
Maximum Humidity 100    
Minimum Humidity 50    
Precipitation  
Precipitation 0.45 in - - ()
Sea Level Pressure  
Sea Level Pressure 30.08 in    
Wind  
Wind Speed 2 mph (NW)    
Max Wind Speed 12 mph    
Max Gust Speed 17 mph    
Visibility 8 miles    
Events Rain , Thunderstorm    
Averages and records for this station are not official NWS values.
T = Trace of Precipitation, MM = Missing Value Source: NWS Daily Summary

Daily Weather History Graph

Daily Weather History Graph

Search for Another Location

Airport or City:

Trip Planner

Search our weather history database for the weather conditions in past years. The results will help you decide how hot, cold, wet, or windy it might be!

Date:

Astronomy

Jun. 20, 2013 Rise Set
Actual Time 5:58 AM CDT 8:08 PM CDT
Civil Twilight 5:30 AM CDT 8:36 PM CDT
Nautical Twilight 4:56 AM CDT 9:10 PM CDT
Astronomical Twilight 4:19 AM CDT 9:47 PM CDT
Moon 5:17 PM CDT (6/20) 3:16 AM CDT (6/20)
Length of Visible Light 15h 06m
Length of Day
14h 10m
Waxing Gibbous, 89% of the Moon is Illuminated
Jun 20
Waxing Gibbous
Jun 23
Full
Jun 29
Last Quarter
Jul 8
New
Jul 15
First Quarter

Hourly Weather History & Observations

Time (CDT) Temp. Heat Index Dew Point Humidity Pressure Visibility Wind Dir Wind Speed Gust Speed Precip Events Conditions
12:37 AM 73.4 °F - 71.6 °F 94% 30.05 in 8.0 mi Calm Calm - N/A   Mostly Cloudy
12:53 AM 73.0 °F - 72.0 °F 96% 30.03 in 7.0 mi Calm Calm - N/A   Mostly Cloudy
1:00 AM 73.4 °F - 71.6 °F 94% 30.05 in 7.0 mi Calm Calm - N/A   Partly Cloudy
1:53 AM 72.0 °F - 71.1 °F 97% 30.03 in 7.0 mi Calm Calm - N/A   Clear
2:53 AM 72.0 °F - 70.0 °F 93% 30.02 in 8.0 mi Calm Calm - N/A   Clear
3:53 AM 71.1 °F - 70.0 °F 96% 30.02 in 6.0 mi Calm Calm - N/A   Clear
4:16 AM 71.6 °F - 69.8 °F 94% 30.04 in 5.0 mi Calm Calm - N/A   Scattered Clouds
4:25 AM 71.6 °F - 69.8 °F 94% 30.04 in 7.0 mi Calm Calm - N/A   Mostly Cloudy
4:42 AM 71.6 °F - 69.8 °F 94% 30.04 in 6.0 mi Calm Calm - N/A   Scattered Clouds
4:53 AM 71.1 °F - 69.1 °F 93% 30.03 in 7.0 mi Calm Calm - N/A   Partly Cloudy
5:53 AM 70.0 °F - 69.1 °F 97% 30.04 in 7.0 mi Calm Calm - N/A   Clear
6:16 AM 69.8 °F - 69.8 °F 100% 30.07 in 5.0 mi Calm Calm - N/A   Partly Cloudy
6:53 AM 72.0 °F - 70.0 °F 93% 30.06 in 5.0 mi Calm Calm - N/A   Clear
7:53 AM 77.0 °F - 72.0 °F 84% 30.09 in 9.0 mi Calm Calm - N/A   Clear
8:53 AM 80.1 °F 83.8 °F 72.0 °F 76% 30.11 in 10.0 mi Calm Calm - N/A   Scattered Clouds
9:53 AM 82.9 °F 87.5 °F 71.1 °F 67% 30.11 in 10.0 mi Calm Calm - N/A   Mostly Cloudy
10:10 AM 82.4 °F 87.2 °F 71.6 °F 70% 30.13 in 10.0 mi Calm Calm - N/A   Scattered Clouds
10:17 AM 84.2 °F 89.6 °F 71.6 °F 66% 30.13 in 10.0 mi Variable 5.8 mph - N/A   Mostly Cloudy
10:49 AM 84.2 °F 89.6 °F 71.6 °F 66% 30.12 in 10.0 mi Calm Calm - N/A   Scattered Clouds
10:53 AM 84.0 °F 89.0 °F 71.1 °F 65% 30.10 in 10.0 mi Calm Calm - N/A   Mostly Cloudy
11:00 AM 84.2 °F 89.6 °F 71.6 °F 66% 30.12 in 10.0 mi NNE 4.6 mph - N/A   Scattered Clouds
11:15 AM 84.2 °F 89.6 °F 71.6 °F 66% 30.12 in 10.0 mi NNW 4.6 mph - N/A   Mostly Cloudy
11:22 AM 86.0 °F 91.8 °F 71.6 °F 62% 30.12 in 10.0 mi North 4.6 mph - N/A   Scattered Clouds
11:53 AM 87.1 °F 92.0 °F 70.0 °F 57% 30.10 in 10.0 mi NNW 4.6 mph - N/A   Mostly Cloudy
12:36 PM 87.8 °F 92.6 °F 69.8 °F 55% 30.11 in 10.0 mi NW 6.9 mph - N/A Thunderstorm Mostly Cloudy
12:51 PM 87.8 °F 93.8 °F 71.6 °F 58% 30.11 in 10.0 mi NNW 5.8 mph - N/A   Mostly Cloudy
12:53 PM 88.0 °F 93.8 °F 71.1 °F 57% 30.09 in 10.0 mi NNW 4.6 mph - N/A   Mostly Cloudy
1:01 PM 87.8 °F 93.8 °F 71.6 °F 58% 30.10 in 10.0 mi Variable 6.9 mph - N/A Thunderstorm Mostly Cloudy
1:21 PM 87.8 °F 93.8 °F 71.6 °F 58% 30.10 in 10.0 mi West 9.2 mph - N/A   Scattered Clouds
1:38 PM 84.2 °F 89.6 °F 71.6 °F 66% 30.10 in 10.0 mi NW 11.5 mph - N/A Thunderstorm Mostly Cloudy
1:53 PM 84.0 °F 92.6 °F 75.9 °F 76% 30.08 in 9.0 mi West 3.5 mph - 0.03 in Rain , Thunderstorm Light Rain
1:59 PM 84.2 °F 90.9 °F 73.4 °F 70% 30.09 in 10.0 mi Calm Calm - 0.00 in Thunderstorm Scattered Clouds
2:53 PM 89.1 °F 92.9 °F 68.0 °F 50% 30.07 in 10.0 mi Calm Calm - 0.00 in Thunderstorm Clear
3:09 PM 87.8 °F 95.6 °F 73.4 °F 62% 30.07 in 10.0 mi South 4.6 mph - N/A   Partly Cloudy
3:53 PM 87.1 °F 93.6 °F 72.0 °F 61% 30.04 in 10.0 mi Calm Calm - N/A   Scattered Clouds
4:53 PM 91.0 °F 96.6 °F 70.0 °F 50% 30.04 in 10.0 mi NNE 9.2 mph - N/A   Mostly Cloudy
5:33 PM 82.4 °F 86.3 °F 69.8 °F 66% 30.06 in 10.0 mi SSW 10.4 mph 16.1 mph N/A Thunderstorm Thunderstorm
5:50 PM 80.6 °F 83.9 °F 69.8 °F 70% 30.06 in 10.0 mi WSW 8.1 mph - N/A   Partly Cloudy
5:53 PM 81.0 °F 84.4 °F 70.0 °F 69% 30.05 in 10.0 mi WSW 8.1 mph - N/A   Partly Cloudy
6:00 PM 80.6 °F 83.9 °F 69.8 °F 70% 30.06 in 10.0 mi SW 11.5 mph 17.3 mph N/A Thunderstorm Partly Cloudy
6:46 PM 75.2 °F - 71.6 °F 89% 30.09 in 1.8 mi Variable 3.5 mph - 0.11 in Rain , Thunderstorm Heavy Thunderstorms and Rain
6:53 PM 75.0 °F - 72.0 °F 90% 30.08 in 1.2 mi East 4.6 mph - 0.20 in Rain , Thunderstorm Heavy Rain
7:03 PM 73.4 °F - 71.6 °F 94% 30.09 in 2.5 mi Calm Calm - 0.05 in Rain Light Rain
7:10 PM 73.4 °F - 71.6 °F 94% 30.08 in 6.0 mi Calm Calm - 0.05 in Rain Light Rain
7:22 PM 75.2 °F - 71.6 °F 89% 30.10 in 1.8 mi NNE 8.1 mph - 0.12 in Rain Heavy Rain
7:32 PM 73.4 °F - 71.6 °F 94% 30.10 in 2.0 mi ENE 6.9 mph - 0.18 in Rain , Thunderstorm Heavy Rain
7:48 PM 73.4 °F - 71.6 °F 94% 30.09 in 5.0 mi Calm Calm - 0.21 in Rain , Thunderstorm Light Thunderstorms and Rain
7:53 PM 73.0 °F - 70.0 °F 90% 30.08 in 7.0 mi Calm Calm - 0.22 in Rain Light Rain
8:53 PM 73.0 °F - 71.1 °F 93% 30.06 in 10.0 mi Calm Calm - 0.00 in   Clear
9:53 PM 72.0 °F - 71.1 °F 97% 30.07 in 7.0 mi Calm Calm - N/A   Scattered Clouds
10:53 PM 72.0 °F - 70.0 °F 93% 30.09 in 7.0 mi Calm Calm - N/A   Clear
11:53 PM 71.1 °F - 70.0 °F 96% 30.09 in 5.0 mi Calm Calm - N/A   Clear